This is the latest recevied weather packets stored in our database for station/object KQ4DLB-13. If no packets are shown the sender has not sent any weather packets the latest 10 day(s).
| Time | Temp. | Humidity | Pressure | Rain* | Wind** | Luminosity | Snow |
|---|---|---|---|---|---|---|---|
| 1777360802 | 20.56° C | 93% | 988.1 hPa | 0 mm | - | - | - |
| 1777360502 | 20.56° C | 93% | 987.9 hPa | 0 mm | - | - | - |
| 1777360202 | 20° C | 93% | 987.9 hPa | 0 mm | - | - | - |
| 1777359902 | 20° C | 93% | 987.9 hPa | 0 mm | - | - | - |
| 1777359602 | 20° C | 93% | 987.8 hPa | 0 mm | - | - | - |
| 1777359302 | 20° C | 94% | 987.5 hPa | 0 mm | - | - | - |
| 1777358702 | 19.44° C | 94% | 987.4 hPa | 0 mm | - | - | - |
| 1777358102 | 19.44° C | 94% | 987.9 hPa | 0 mm | - | - | - |
| 1777357802 | 19.44° C | 94% | 988 hPa | 0 mm | - | - | - |
| 1777357502 | 19.44° C | 94% | 988.2 hPa | 0 mm | - | - | - |
| 1777357202 | 19.44° C | 94% | 988.4 hPa | 0.25 mm | - | - | - |
| 1777356902 | 18.89° C | 94% | 988.6 hPa | 0.51 mm | - | - | - |
| 1777356602 | 18.89° C | 94% | 989 hPa | 1.52 mm | - | - | - |
| 1777356302 | 18.89° C | 94% | 988.6 hPa | 2.03 mm | - | - | - |
| 1777354802 | 21.11° C | 92% | 988.7 hPa | 1.52 mm | - | - | - |
| 1777354502 | 21.11° C | 91% | 988.7 hPa | 0.51 mm | - | - | - |
| 1777354202 | 21.11° C | 90% | 987.8 hPa | 0 mm | - | - | - |
| 1777353602 | 21.67° C | 89% | 987.4 hPa | 0 mm | - | - | - |
| 1777353302 | 21.67° C | 87% | 987.7 hPa | 0.25 mm | - | - | - |
| 1777353002 | 22.22° C | 84% | 987.9 hPa | 0 mm | - | - | - |
| 1777352702 | 22.78° C | 82% | 987.7 hPa | 0 mm | - | - | - |
| 1777352402 | 22.78° C | 81% | 987.4 hPa | 0 mm | - | - | - |
| 1777352102 | 22.78° C | 80% | 987.4 hPa | 0 mm | - | - | - |
| 1777351802 | 23.33° C | 79% | 987.4 hPa | 0 mm | - | - | - |
| 1777351202 | 23.33° C | 77% | 987.4 hPa | 0 mm | - | - | - |
* Rain latest hour (hover to see other rain measurements)
** Current wind speed in m/s (hover to see current wind gust speed)